Location: ??
(30.6954°N, 114.5022°E)
Time: 14:17:39
(UTC+00:00)

Daily predictions for brighter satellites

Satellite Brightness Start Highest point End
(mag) Time Altitude Azimuth Time Altitude Azimuth Time Altitude Azimuth
SJ-6B 3.1 12:01:20 10° SSE 12:05:06 49° ENE 12:08:58 10° N
Cosmos 2263 Rocket 2.8 12:01:20 10° N 12:06:32 40° ENE 12:11:41 10° SE
NOSS 7 (D) 4.1 12:04:03 10° SSW 12:07:05 48° ESE 12:09:51 10° NE
IUS-9 SRM-1 2.5 12:06:09 10° W 12:10:26 33° SSW 12:11:53 14° SE
Cosmos 2333 Rocket 4.0 12:10:04 10° ESE 12:11:38 11° E 12:13:13 10° E
DELTA 2 R/B (1) 4.2 12:08:56 10° SSW 12:13:52 33° SE 12:18:50 10° E
Cosmos 372 Rocket 4.2 12:08:49 10° N 12:13:57 55° ENE 12:19:04 10° SSE
USA 215 3.6 12:11:51 10° ENE 12:17:55 40° SE 12:23:57 10° SSW
Cosmos 1602 Rocket 4.2 12:15:01 10° SSE 12:19:01 36° E 12:23:04 10° NNE
Delta 2 Rocket 4.0 12:15:53 10° W 12:19:15 42° N 12:22:27 10° ENE
CZ-2C R/B 3.8 12:15:00 10° NNE 12:19:45 68° ESE 12:24:29 10° S
Cosmos 1726 Rocket 4.1 12:17:30 10° NNW 12:21:54 62° W 12:26:17 10° S
SL-16 R/B 2.7 12:17:10 10° SSW 12:22:45 65° WNW 12:28:23 10° NNE
CZ-2C R/B 4.4 12:18:08 10° S 12:23:35 44° W 12:28:55 10° NNW
ARGOS 3.6 12:18:19 10° S 12:23:39 63° W 12:29:03 10° NNW
Cosmos 1818 3.5 12:19:57 10° SSW 12:25:16 64° ESE 12:30:39 10° NE
Cosmos 1356 Rocket 3.4 12:24:31 10° N 12:28:45 80° E 12:32:52 10° S
MetOp-A 4.1 12:23:45 10° SSE 12:29:03 69° ENE 12:34:23 10° N
CZ-2C R/B 2.9 12:26:33 10° N 12:31:54 73° WNW 12:37:06 10° SSW
GMS 1 Rocket 4.4 12:28:41 10° WSW 12:32:31 50° SSE 12:35:12 18° E
ATLAS 5 CENTAUR R/B 1.2 12:33:43 10° SSW 12:37:40 79° ESE 12:41:55 10° NNE
SL-08 RB Rocket 4.3 12:33:20 10° S 12:37:42 54° W 12:42:05 10° NNW
Resurs 01 Rocket 2.2 12:37:51 21° SE 12:40:21 40° ENE 12:44:28 10° N
Cosmos 2150 Rocket 4.0 12:38:12 10° NNW 12:43:26 74° ENE 12:47:14 19° SSE
Cosmos 1745 Rocket 4.1 12:37:47 10° SSE 12:43:45 55° E 12:49:48 10° NNE
GEOS 3 Rocket 3.6 12:38:49 10° NE 12:44:13 73° ESE 12:49:33 10° SSW
BREEZE-M DEB (TANK) 3.5 12:37:13 10° NW 12:44:58 63° SW 12:47:41 21° SSE
Cosmos 1844 Rocket 4.4 12:44:09 10° NNE 12:47:44 17° ENE 12:49:56 14° E
Meteor 2-10 Rocket 4.0 12:50:41 10° N 12:55:35 43° E 12:57:51 28° SE
Cosmos 2058 Rocket 4.5 12:52:48 10° NNW 12:56:57 38° W 13:01:05 10° SSW
Iridium 82 4.4 12:58:04 28° S 12:59:50 87° E 13:03:27 10° N
Meteor 1-21 Rocket 4.3 12:55:58 10° S 13:01:50 89° W 13:07:47 10° N
SL-08 ROCKET BODY 4.3 12:57:15 10° S 13:03:08 84° E 13:09:08 10° N
Cosmos 1758 Rocket 3.6 13:02:21 30° SSE 13:04:22 59° E 13:08:48 10° NNE
Cosmos 2322 Rocket 4.2 13:05:36 10° WSW 13:10:24 29° WNW 13:15:14 10° N
OAO 3 Rocket 3.8 13:07:16 10° WNW 13:12:05 53° N 13:15:04 22° ENE
Cosmos 1125 Rocket 3.4 13:09:15 10° NNW 13:14:32 90° ENE 13:16:51 35° SSE
SPOT 3 Rocket 4.2 13:11:49 17° S 13:15:42 51° W 13:20:48 10° NNW
NOSS 3-3 (A) 3.7 13:14:06 10° SSW 13:19:37 63° ESE 13:25:39 10° NE
NOSS 3-3 (C) 3.7 13:14:13 10° SSW 13:19:44 62° ESE 13:25:46 10° NE
Cosmos 1400 Rocket 4.0 13:16:38 10° NNE 13:19:35 28° ENE 13:19:35 28° ENE
BREEZE M DEB (TANK) 2.9 13:20:07 29° SSW 13:21:50 60° SE 13:31:13 10° NE
Cosmos 1953 Rocket 3.6 13:27:33 54° E 13:27:33 54° E 13:31:42 10° NNE
Cosmos 1709 Rocket 3.9 13:25:48 33° S 13:28:48 72° E 13:35:07 10° N
COSMOS 2428 2.8 13:27:57 44° SSE 13:29:14 54° ESE 13:34:44 10° NNE
OAO 2 Rocket 4.0 13:24:49 10° W 13:30:02 58° N 13:33:46 19° ENE
Cosmos 2322 3.8 13:27:45 10° SSW 13:33:27 76° WNW 13:39:11 10° NNE
Nadezhda 1 Rocket 4.2 13:32:59 10° N 13:39:22 73° W 13:42:27 32° S
Cosmos 1328 4.3 13:39:44 49° SW 13:40:24 57° W 13:44:19 10° N
Cosmos 1844 4.3 13:35:50 10° N 13:41:14 41° ENE 13:41:58 39° E
BREEZE-M DEB (TANK) 4.5 13:33:10 10° WSW 13:41:38 42° NW 13:44:24 10° NNE
Cosmos 1825 Rocket 4.1 13:41:58 38° SW 13:43:21 56° W 13:47:43 10° N
Cosmos 2237 Rocket 3.9 13:46:07 19° ENE 13:46:07 19° ENE 13:48:14 10° NE
MetOp-B 4.3 13:42:23 43° SSW 13:44:04 68° WSW 13:49:24 10° NNW
Atlas Centaur 2 2.4 13:39:27 10° W 13:45:30 88° S 13:48:32 38° E
Cosmos 2219 Rocket 2.0 13:44:18 38° SSW 13:46:31 90° ESE 13:52:08 10° NNE
Cosmos 2360 Rocket 4.2 13:43:47 10° WSW 13:48:29 27° WNW 13:53:14 10° N
Cosmos 2263 Rocket 4.2 13:46:08 10° NW 13:50:04 20° W 13:53:25 12° SW
Cosmos 1461 4.2 13:47:43 10° NW 13:52:03 36° WSW 13:52:40 34° SW
Cosmos 1538 Rocket 3.9 13:53:57 63° SSW 13:54:52 89° WNW 14:00:14 10° NNE
Cosmos 2333 Rocket 2.4 13:51:57 26° SSW 13:55:10 69° WNW 14:00:52 10° NNE
Terra 2.9 13:56:08 32° NE 13:56:08 32° NE 13:59:40 10° N
Cosmos 1455 3.4 13:53:30 10° NNW 13:57:03 36° W 13:57:03 36° W
DELTA 2 R/B (1) 3.8 13:54:33 10° WSW 14:00:06 67° NNW 14:05:40 10° ENE
USA 215 4.3 13:54:42 10° NNE 14:00:51 45° NW 14:06:58 10° WSW
CARTOSAT-1 4.1 14:04:29 52° NNE 14:04:29 52° NNE 14:07:50 10° N
Alouette 2 Rocket 4.1 14:08:25 10° NNW 14:12:43 68° W 14:12:54 67° WSW
ERS-1 Rocket 3.0 14:16:52 74° NW 14:16:52 74° NW 14:21:31 10° NNW
Resurs 01 Rocket 4.2 14:15:25 11° WSW 14:16:56 13° W 14:18:59 10° WNW
Cosmos 2278 Rocket 3.8 14:21:47 10° N 14:25:49 23° NE 14:25:49 23° NE
Cosmos 2074 Rocket 3.9 14:30:36 85° NE 14:30:36 85° NE 14:36:42 10° N
Cosmos 1844 Rocket 3.2 14:26:30 10° NNW 14:31:36 50° W 14:31:36 50° W
Cosmos 2181 Rocket 4.0 14:28:23 10° N 14:34:38 70° W 14:34:53 69° WSW
SPOT 5 3.6 14:37:00 52° WNW 14:37:00 52° WNW 14:41:07 10° NNW
Cosmos 2221 4.3 14:33:00 10° N 14:35:06 26° NNE 14:35:06 26° NNE
Cosmos 1680 Rocket 4.5 14:54:36 43° N 14:54:36 43° N 14:58:08 10° NNE
Cosmos 2237 Rocket 3.5 15:27:53 35° WNW 15:27:53 35° WNW 15:32:43 10° N
MOS 1-B Rocket 4.4 15:21:22 10° N 15:27:53 68° NNW 15:27:53 68° NNW
Terra 4.3 15:35:01 15° WNW 15:35:01 15° WNW 15:36:25 10° NW
Atlas Centaur 2 4.0 15:28:13 10° W 15:31:06 28° W 15:31:06 28° W
ATLAS 2AS CENTAUR R/B 3.5 15:30:07 10° NNW 15:36:49 44° NE 15:36:49 44° NE
Cosmos 2344 4.3 15:46:16 36° W 15:48:22 44° NW 15:55:38 10° NNE
USA 267 3.8 16:12:06 53° NW 16:12:06 53° NW 16:16:54 10° NW
Cosmos 2278 Rocket 4.0 16:05:12 10° NW 16:07:39 23° NW 16:07:39 23° NW
SL-16 R/B 3.6 16:13:23 33° NNW 16:13:23 33° NNW 16:16:59 10° N
Cosmos 1943 Rocket 4.0 16:15:10 10° N 16:18:44 25° NE 16:18:44 25° NE
COSMOS 2455 4.0 16:41:31 10° N 16:46:01 38° NNE 16:46:01 38° NNE
Cosmos 2369 Rocket 3.5 16:58:07 10° N 17:01:50 35° NNE 17:01:50 35° NNE
Resurs 1-4 Rocket 4.1 17:02:02 10° NE 17:04:27 21° ENE 17:04:27 21° ENE
SeaSat 1 4.2 17:09:57 10° NNE 17:12:14 28° NE 17:12:14 28° NE
ATLAS 2AS CENTAUR R/B 4.5 17:21:43 10° NW 17:24:13 20° WNW 17:24:13 20° WNW
CZ-2D R/B 3.4 17:30:06 10° NNE 17:33:36 37° NE 17:33:36 37° NE
Lacrosse 5 3.3 17:51:10 33° NE 17:51:10 33° NE 17:54:00 10° NE
NPP 4.4 17:48:18 10° NNE 17:52:20 49° NE 17:52:20 49° NE
SEDSat Delta rocket 4.3 17:57:33 62° ENE 17:57:33 62° ENE 18:02:52 10° E
Cosmos 1943 Rocket 4.2 17:58:35 10° NW 18:00:13 18° NW 18:00:13 18° NW
Cosmos 1153 Rocket 4.5 18:14:00 77° NNW 18:14:00 77° NNW 18:19:48 10° N
Cosmos 2251 Rocket 4.0 18:16:05 57° NNE 18:16:05 57° NNE 18:20:13 10° NNE
SL-16 R/B 2.4 18:16:17 86° NE 18:16:17 86° NE 18:22:28 10° NNW
Cosmos 1459 Rocket 4.2 18:17:07 55° ESE 18:17:30 56° E 18:23:24 10° NNE
Lacrosse 5 rocket 3.8 18:18:54 10° NNW 18:19:48 15° N 18:19:48 15° N
ARIANE 5 R/B 4.0 18:18:38 10° NE 18:22:54 27° E 18:23:23 27° ESE
CZ-4C R/B 3.0 18:19:13 10° NNW 18:27:02 86° WSW 18:30:20 42° SSE
Cosmos 405 Rocket 4.2 18:39:01 37° NNE 18:39:01 37° NNE 18:41:30 10° NNE
CZ-4B R/B 3.9 18:33:10 10° N 18:37:25 53° NW 18:37:25 53° NW
GPS 2-04 Rocket1 4.4 18:41:40 30° NE 18:41:40 30° NE 18:43:48 10° ENE
Cosmos 614 Rocket 4.4 18:40:37 52° ESE 18:40:41 52° ESE 18:45:37 10° NNE
Resurs 1-4 Rocket 3.3 18:41:34 10° N 18:45:31 29° WNW 18:45:31 29° WNW
Okean 1 4.4 18:43:03 10° N 18:45:46 42° NNE 18:45:46 42° NNE
Cosmos 2369 Rocket 4.4 18:43:12 10° WNW 18:43:35 11° WNW 18:43:35 11° WNW
OAO 3 Copernicus 4.3 18:49:39 76° ENE 18:49:39 76° ENE 18:54:22 10° ESE
Okean 1-7 3.5 18:45:48 10° N 18:50:07 55° E 18:50:10 55° E
IRS-P3 4.0 18:45:39 10° NNE 18:51:00 85° ESE 18:51:24 77° S
Cosmos 1869 Rocket 3.8 18:53:33 66° NE 18:53:33 66° NE 18:57:22 10° N
Cosmos 2173 Rocket 4.0 18:56:45 58° WSW 18:57:35 63° W 19:03:53 10° N
ADEOS II 2.0 18:53:01 10° N 18:58:14 66° WNW 18:58:26 66° W
CZ-2D R/B 4.3 18:58:51 10° NNE 19:03:03 44° E 19:03:45 40° SE
Cosmos 2016 Rocket 3.8 19:04:49 54° SSW 19:06:19 82° W 19:12:29 10° N
Meteor 2-4 Rocket 4.5 19:01:08 10° N 19:06:56 54° E 19:11:31 16° SSE
Meteor 1-28 Rocket 4.5 19:06:36 31° ESE 19:07:35 37° ENE 19:11:01 10° N
Meteor 1-18 Rocket 4.2 19:02:02 10° NNW 19:07:51 75° W 19:09:09 54° SSW
Cosmos 1703 Rocket 3.6 19:03:49 10° N 19:07:58 71° NW 19:07:58 71° NW
IRS-1D 4.3 19:08:48 10° N 19:13:12 34° WNW 19:13:12 34° WNW
Cosmos 1864 Rocket 4.3 19:11:43 45° S 19:13:49 86° W 19:19:58 10° N
Cosmos 1190 Rocket 4.1 19:13:08 47° SSE 19:14:32 69° ESE 19:19:42 10° NNE
CZ-2D R/B 4.0 19:11:40 10° NNW 19:14:52 16° WNW 19:14:55 16° WNW
Cosmos 1500 3.6 19:16:53 54° NW 19:16:53 54° NW 19:20:05 10° N
DELTA 2 R/B (1) 3.5 19:15:41 10° WNW 19:21:18 89° SSW 19:26:55 10° ESE
COBE Rocket 4.0 19:24:55 48° SSW 19:26:07 62° W 19:31:09 10° NNW
SL-19 R/B 4.3 19:23:35 10° NNE 19:25:58 50° ENE 19:25:58 50° ENE
SL-08 R/B 3.1 19:25:26 40° S 19:27:06 84° WSW 19:31:50 10° NNW
COSMOS 2406 3.2 19:29:33 41° SW 19:31:34 72° WNW 19:37:21 10° NNE
Lacrosse 5 3.8 19:30:21 15° WNW 19:32:17 18° NW 19:35:47 10° N
Cosmos 1666 2.7 19:32:06 54° SSE 19:32:53 78° E 19:36:41 10° N
Hubble Space Telescope 3.1 19:36:10 12° SSE 19:36:10 12° SSE 19:36:34 10° SSE
Cosmos 1437 Rocket 2.8 19:29:13 10° N 19:33:16 81° E 19:34:44 38° SSE
CZ-2C R/B 3.0 19:32:15 10° NNE 19:36:18 69° ESE 19:37:48 36° S
CZ-2C R/B 4.3 19:35:56 10° NE 19:39:54 25° E 19:43:45 10° SSE
Cosmos 1816 Rocket 4.5 19:36:36 10° N 19:42:59 80° W 19:48:34 14° S
SEDSat Delta rocket 3.9 19:37:40 16° W 19:43:08 86° S 19:49:20 10° ESE
SWIFT 4.0 19:46:52 19° SSE 19:46:52 19° SSE 19:49:32 10° SE
Cosmos 2082 Rocket 2.7 19:44:07 18° S 19:48:15 56° ESE 19:53:51 10° NNE
IDEFIX/ARIANE 42P 2.5 19:43:50 10° N 19:48:59 68° WNW 19:51:44 28° SSW
ERS-2 2.5 19:47:29 12° SSE 19:50:48 65° ENE 19:54:24 10° N
Cosmos 407 Rocket 4.2 19:50:29 29° WSW 19:52:22 39° WNW 19:57:21 10° N
Meteor 1-11 Rocket 3.8 19:52:31 27° SSW 19:55:31 58° W 20:00:59 10° N
GOES 2 Rocket 3.6 19:52:01 21° W 19:56:16 71° S 20:01:14 10° E
Spot 4 Rocket 4.5 19:51:28 10° N 19:56:20 44° WNW 19:58:43 27° SW
Cosmos 2233 Rocket 4.0 19:54:03 23° SSW 19:57:51 59° W 20:03:59 10° N
Cosmos 1356 3.6 19:59:39 22° S 20:01:44 70° E 20:05:09 10° NNE
ARIANE 5 R/B 3.7 19:57:41 10° NNW 20:01:51 26° WNW 20:03:43 21° WSW
ATLAS 5 CENTAUR R/B 4.2 19:56:31 10° NNW 20:01:57 83° ENE 20:26:36 10° SSE
Cosmos 676 Rocket 4.0 20:00:52 24° SSW 20:04:01 67° WNW 20:09:15 10° N
CZ-3B R/B 3.8 20:00:48 20° SW 20:04:34 27° S 20:08:14 10° ESE
Cosmos 1733 Rocket 3.3 20:02:45 27° SW 20:04:48 49° W 20:08:59 10° N
Aureole 1 Rocket 3.5 20:03:46 29° WSW 20:04:59 38° WNW 20:09:06 10° N
Meteor 2-11 Rocket 4.4 19:59:50 12° S 20:05:32 87° W 20:11:38 10° N
CZ-4C R/B 2.7 20:05:56 14° S 20:08:41 72° WSW 20:12:00 10° NNW
Okean 3 3.9 20:05:43 10° NNW 20:09:37 40° W 20:11:54 21° SSW
Cosmos 1833 Rocket 3.0 20:07:02 22° SW 20:10:24 49° WNW 20:15:50 10° N
Cosmos 2221 Rocket 3.8 20:06:25 10° NNW 20:10:40 48° W 20:14:02 15° SSW
deb Kosmos-1763 4.2 20:09:37 17° S 20:12:12 70° ESE 20:15:46 10° NNE
Cosmos 1140 Rocket 4.4 20:09:58 21° WSW 20:12:30 32° WNW 20:17:09 10° N
Cosmos 1536 3.7 20:12:30 24° WSW 20:14:07 32° W 20:17:48 10° NNW
CZ-4C R/B 4.5 20:10:49 10° WNW 20:15:02 15° WSW 20:15:19 15° WSW
Delta 128 4.0 20:12:23 15° W 20:17:17 64° S 20:22:14 10° ESE
Cosmos 1975 4.5 20:14:37 10° SSE 20:18:14 33° E 20:21:51 10° NNE
Tsikada Rocket 4.4 20:12:33 10° NNW 20:18:33 44° W 20:24:33 10° SSW
GPS 2-04 Rocket1 3.9 20:16:10 10° WNW 20:19:47 38° N 20:23:33 10° ENE
ASTRO E2 2.7 20:19:08 14° W 20:22:26 79° N 20:26:24 10° E
Cosmos 1900 4.3 20:21:58 14° SSW 20:26:07 84° WNW 20:31:03 10° NNE
Cosmos 1242 Rocket 4.5 20:23:43 10° NNE 20:26:48 30° E 20:29:53 10° SE
deb Chang Zheng 4 3.5 20:29:32 10° N 20:33:46 66° WNW 20:37:59 10° SSW
Cosmos 220 Rocket 4.2 20:31:09 10° NNW 20:35:11 44° WSW 20:39:10 10° S
CZ-3 R/B 4.2 19:47:54 10° WNW 20:37:25 59° SW 20:48:45 10° SE
H-2A R/B 3.0 20:35:38 10° SSW 20:39:33 30° W 20:43:27 10° NW
Cosmos 1263 4.0 20:39:18 10° N 20:42:19 88° W 20:45:18 10° S
CZ-3A R/B 3.2 20:43:53 11° SW 20:47:12 28° S 20:56:20 10° SE
Meteor 1-31 Rocket 3.6 20:45:06 10° NNE 20:48:57 53° E 20:52:47 10° S
Cosmos 2369 3.9 20:44:40 10° NNW 20:50:25 85° ENE 20:56:09 10° SSE
Cosmos 1464 Rocket 4.2 20:46:58 10° SSW 20:53:11 58° W 20:59:29 10° N
CZ-4B R/B 1.4 20:50:51 10° S 20:54:12 71° W 20:57:38 10° NNW
Cosmos 1378 3.1 20:50:52 10° NNW 20:54:34 61° W 20:58:15 10° S
Cosmos 1656 4.1 20:50:04 10° NW 20:55:01 37° WSW 20:59:59 10° S
Cosmos 192 4.3 20:52:38 10° NNW 20:57:33 86° WSW 21:02:25 10° SSE
CENTAUR R/B 4.5 20:54:09 10° SSE 20:58:21 23° ESE 21:02:58 10° ENE
Cosmos 1544 3.2 20:54:52 10° SSW 20:58:22 52° W 21:01:53 10° N
Cosmos 2034 Rocket 4.0 20:52:13 10° S 20:58:22 77° W 21:04:31 10° N
Cosmos 1743 3.9 20:55:51 10° SW 20:58:59 24° W 21:02:08 10° NNW
